Flag for Germany

Past Weather in Saarbrücken, Saarland, Germany — Yesterday and Last 2 Weeks

Now
70 °F

Scattered clouds.


Feels Like: 70 °F
Forecast: 71 / 54 °F
Wind: 16 mph from West

Location: Saarbruecken / Ensheim

Current Time: Jul 2, 2020 at 3:52:13 pm

Latest Report: Jul 2, 2020 at 2:50 pm


Visibility: N/A

Pressure: 29.92 "Hg

Humidity: 53%

Dew Point: 52 °F

Location of SaarbrückenLocation

Past Weather in Saarbrücken — Graph

°F

Saarbrücken Temperature Yesterday

Maximum temperature yesterday: 77 °F (at 3:20 pm)
Minimum temperature yesterday: 55 °F (at 4:20 am)
Average temperature yesterday: 67 °F

High & Low Weather Summary for the Past Weeks

 TemperatureHumidityPressure
High84 °F (Jun 26, 3:20 pm)100% (Jun 17, 5:20 pm)30.30 "Hg (Jun 17, 5:20 pm)
Low50 °F (Jun 21, 5:50 am)23% (Jun 24, 5:20 pm)29.80 "Hg (Jul 1, 5:50 pm)
Average65 °F69%30.04 "Hg
* Reported Jun 17 2:20 pm — Jul 2 2:20 pm, Saarbrücken. Weather by CustomWeather, © 2020

Note: Actual official high and low records may vary slightly from our data, if they occured in-between our weather recording intervals... More about our weather records

Saarbrücken Weather History for the Previous 24 Hours

Scroll right to see more
 ConditionsComfort  
Time TempWeatherWind HumidityBarometerVisibility
2:20 pm
Thu, Jul 2
73 °FPassing clouds.15 mph47%29.92 "HgN/A
1:50 pm72 °FPassing clouds.16 mph50%29.92 "HgN/A
1:20 pm70 °FScattered clouds.16 mph53%29.92 "HgN/A
12:50 pm70 °FScattered clouds.17 mph53%29.92 "HgN/A
12:20 pm70 °FScattered clouds.17 mph53%29.92 "HgN/A
11:50 am66 °FScattered clouds.17 mph64%29.92 "HgN/A
11:20 am68 °FScattered clouds.16 mph64%29.92 "HgN/A
10:50 am64 °FScattered clouds.17 mph73%29.92 "HgN/A
10:20 am66 °FBroken clouds.13 mph73%29.92 "HgN/A
9:50 am64 °FBroken clouds.12 mph78%29.92 "HgN/A
9:20 am64 °FPartly sunny.12 mph78%29.92 "HgN/A
8:50 am66 °FScattered clouds.13 mph78%29.92 "HgN/A
8:20 am64 °FScattered clouds.9 mph88%29.92 "HgN/A
7:50 am63 °FPartly sunny.8 mph94%29.92 "HgN/A
7:20 am63 °FScattered clouds.8 mph94%29.89 "HgN/A
6:50 am63 °FPartly sunny.8 mph94%29.89 "HgN/A
6:20 am63 °FPartly sunny.8 mph94%29.89 "HgN/A
5:50 am61 °FPartly sunny.8 mph100%29.89 "HgN/A
5:20 am61 °FSprinkles. Passing clouds.6 mph100%29.89 "HgN/A
4:50 am61 °FPassing clouds.5 mph100%29.89 "HgN/A
4:20 am61 °FSprinkles. Passing clouds.6 mph100%29.89 "HgN/A
3:50 am63 °FSprinkles. Partly cloudy.6 mph94%29.89 "HgN/A
3:20 am63 °FSprinkles. Partly cloudy.10 mph94%29.89 "HgN/A
2:50 am66 °FPartly cloudy.6 mph78%29.89 "HgN/A
2:20 am66 °FPassing clouds.10 mph78%29.89 "HgN/A
1:50 am66 °FPassing clouds.10 mph78%29.89 "HgN/A
1:20 am68 °FPassing clouds.9 mph69%29.89 "HgN/A
12:50 am68 °FPassing clouds.14 mph69%29.89 "HgN/A
12:20 am68 °FClear.10 mph69%29.86 "Hg10 mi
11:50 pm
Wed, Jul 1
70 °FClear.12 mph64%29.86 "Hg10 mi
11:20 pm70 °FClear.14 mph64%29.86 "Hg10 mi
10:50 pm70 °FClear.14 mph64%29.86 "Hg10 mi
9:50 pm72 °FPassing clouds.8 mph65%29.83 "HgN/A
9:20 pm72 °FPassing clouds.9 mph61%29.83 "HgN/A
8:50 pm72 °FPassing clouds.13 mph61%29.83 "HgN/A
8:20 pm75 °FScattered clouds.12 mph57%29.83 "HgN/A
7:50 pm73 °FPartly sunny.9 mph61%29.83 "HgN/A
7:20 pm75 °FScattered clouds.14 mph57%29.83 "HgN/A
6:50 pm75 °FPassing clouds.13 mph57%29.80 "HgN/A
6:20 pm75 °FPassing clouds.13 mph57%29.80 "HgN/A
5:50 pm77 °FPassing clouds.12 mph54%29.80 "HgN/A
5:20 pm77 °FScattered clouds.13 mph57%29.83 "HgN/A
4:50 pm77 °FScattered clouds.13 mph54%29.83 "HgN/A
4:20 pm77 °FPartly sunny.14 mph57%29.83 "HgN/A
3:50 pm77 °FScattered clouds.17 mph54%29.83 "HgN/A
3:20 pm77 °FScattered clouds.16 mph57%29.83 "HgN/A
Weather by CustomWeather, © 2020

See weather overview